SBIRS GEO-1 (USA 230)

Last updated on Sat Apr 13 2024 01:02:37 GMT+0100 (British Summer Time)

1 37481U 11019A 24103.53386390 -.00000012 00000+0 00000+0 0 9994 2 37481 2.8717 47.4592 0002166 331.3668 80.2797 1.00272329 47422
UTC large
Height (km)
Speed (km/s)
/
Latitude / Longitude
Inclination (degrees)
Orbital Period (minutes)
Azimuth
Elevation
Range (km)
Doppler Factor

Next 0 passes for location: London (51.5072 / 0.1276)

Sorry there are no passes over London.